Big Rapids, MI

10:16 PM EST on November 16, 2019 (GMT -0500)
Roben-Hood

Weather History for KRQB - October, 2019

Change the Weather History Date:

Monday, October 21, 2019

  Actual Average Record
Temperature  
Mean Temperature 51 °F -  
Max Temperature 59 °F 55 °F 77 °F (2007)
Min Temperature 43 °F 35 °F 21 °F (1974)
Degree Days  
Heating Degree Days 14    
Growing Degree Days 1 (Base 50)    
Moisture  
Dew Point 50 °F    
Average Humidity 89    
Maximum Humidity 94    
Minimum Humidity 77    
Precipitation  
Precipitation 0.18 in - - ()
Sea Level Pressure  
Sea Level Pressure 29.71 in    
Wind  
Wind Speed 7 mph (SE)    
Max Wind Speed 22 mph    
Max Gust Speed 37 mph    
Visibility 9 miles    
Events Rain    
Averages and records for this station are not official NWS values.
T = Trace of Precipitation, MM = Missing Value Source: NWS Daily Summary

Daily Weather History Graph

Daily Weather History Graph

Search for Another Location

Airport or City:

Astronomy

Oct. 21, 2019 Rise Set
Actual Time 8:03 AM EDT 6:49 PM EDT
Civil Twilight 7:34 AM EDT 7:18 PM EDT
Nautical Twilight 7:00 AM EDT 7:51 PM EDT
Astronomical Twilight 6:27 AM EDT 8:24 PM EDT
Moon No Moon Rise 3:27 PM EDT (10/21)
Length of Visible Light 11h 44m
Length of Day
10h 45m
Waning Gibbous, 48% of the Moon is Illuminated
Oct 21
Waning Gibbous
Oct 27
New
Nov 4
First Quarter
Nov 12
Full
Nov 19
Last Quarter

Hourly Weather History & Observations

Time (EDT) Temp. Windchill Dew Point Humidity Pressure Visibility Wind Dir Wind Speed Gust Speed Precip Events Conditions
12:19 AM 43.5 °F - 41.7 °F 93% 29.96 in 10.0 mi Calm Calm - N/A   Clear
12:36 AM 43.3 °F - 41.5 °F 93% 29.96 in 10.0 mi Calm Calm - N/A   Clear
12:55 AM 45.0 °F 43.5 °F 42.1 °F 90% 29.96 in 10.0 mi SSE 3.5 mph - N/A   Clear
12:56 AM 44.6 °F 43.1 °F 41.5 °F 89% 29.96 in 10.0 mi SSE 3.5 mph - N/A   Clear
1:15 AM 45.7 °F 43.4 °F 42.6 °F 89% 29.97 in 10.0 mi ESE 4.6 mph - N/A   Clear
1:20 AM 46.4 °F 45.2 °F 43.2 °F 88% 29.97 in 10.0 mi ESE 3.5 mph - N/A   Clear
1:36 AM 46.8 °F - 43.7 °F 89% 29.97 in 10.0 mi ESE 3.5 mph - N/A   Clear
1:55 AM 47.3 °F - 44.6 °F 90% 29.96 in 10.0 mi East 3.5 mph - N/A   Clear
2:15 AM 47.8 °F - 45.3 °F 91% 29.97 in 10.0 mi East 3.5 mph - N/A   Clear
2:16 AM 47.8 °F - 45.1 °F 90% 29.97 in 10.0 mi ESE 3.5 mph - N/A   Clear
2:38 AM 47.7 °F - 45.3 °F 92% 29.96 in 10.0 mi East 4.6 mph - N/A   Mostly Cloudy
2:55 AM 48.0 °F - 45.7 °F 92% 29.96 in 10.0 mi East 3.5 mph - N/A   Scattered Clouds
3:15 AM 48.2 °F - 45.9 °F 92% 29.95 in 10.0 mi East 4.6 mph - N/A   Mostly Cloudy
3:35 AM 48.4 °F - 46.0 °F 92% 29.93 in 10.0 mi East 4.6 mph - N/A   Mostly Cloudy
3:40 AM 48.6 °F - 46.2 °F 92% 29.92 in 10.0 mi ESE 4.6 mph - N/A   Overcast
3:57 AM 48.7 °F - 46.4 °F 92% 29.92 in 10.0 mi ESE 3.5 mph - N/A   Overcast
4:15 AM 49.3 °F - 46.4 °F 90% 29.94 in 10.0 mi SE 4.6 mph - N/A   Mostly Cloudy
4:16 AM 49.3 °F - 46.4 °F 90% 29.94 in 10.0 mi SE 5.8 mph - N/A   Mostly Cloudy
4:35 AM 49.1 °F - 46.6 °F 91% 29.94 in 10.0 mi ESE 6.9 mph - N/A   Overcast
4:36 AM 49.1 °F - 46.6 °F 91% 29.94 in 10.0 mi ESE 6.9 mph - N/A   Overcast
4:57 AM 49.3 °F - 46.6 °F 90% 29.94 in 10.0 mi ESE 8.1 mph - N/A   Overcast
5:16 AM 49.5 °F - 46.6 °F 90% 29.94 in 10.0 mi East 5.8 mph - N/A   Overcast
5:35 AM 49.6 °F - 46.8 °F 90% 29.93 in 10.0 mi East 4.6 mph - N/A   Overcast
5:59 AM 49.5 °F - 46.8 °F 90% 29.93 in 10.0 mi ESE 6.9 mph - N/A   Overcast
6:16 AM 49.3 °F - 46.6 °F 90% 29.92 in 10.0 mi East 5.8 mph - N/A   Overcast
6:35 AM 49.5 °F - 46.8 °F 90% 29.92 in 10.0 mi ESE 5.8 mph - N/A   Overcast
6:55 AM 49.1 °F - 46.6 °F 91% 29.91 in 10.0 mi ESE 6.9 mph - N/A   Mostly Cloudy
7:00 AM 49.1 °F - 46.8 °F 92% 29.91 in 10.0 mi ESE 5.8 mph - N/A   Mostly Cloudy
7:17 AM 49.5 °F - 47.3 °F 92% 29.90 in 10.0 mi ESE 6.9 mph - N/A   Overcast
7:35 AM 49.1 °F - 46.8 °F 92% 29.89 in 10.0 mi ESE 6.9 mph - N/A   Mostly Cloudy
7:36 AM 49.1 °F - 46.8 °F 92% 29.89 in 10.0 mi ESE 6.9 mph - N/A   Mostly Cloudy
7:55 AM 49.5 °F - 46.9 °F 91% 29.87 in 10.0 mi East 8.1 mph - N/A   Mostly Cloudy
7:56 AM 49.5 °F - 46.9 °F 91% 29.87 in 10.0 mi ESE 8.1 mph - N/A   Mostly Cloudy
8:18 AM 49.6 °F - 46.9 °F 90% 29.84 in 10.0 mi ESE 8.1 mph - N/A   Overcast
8:35 AM 50.0 °F - 46.8 °F 89% 29.83 in 10.0 mi East 10.4 mph 16.1 mph N/A   Overcast
8:55 AM 50.0 °F - 46.8 °F 89% 29.84 in 10.0 mi ESE 8.1 mph - N/A   Overcast
9:19 AM 50.4 °F - 46.8 °F 87% 29.84 in 10.0 mi East 6.9 mph - N/A   Overcast
9:36 AM 50.5 °F - 46.8 °F 87% 29.82 in 10.0 mi East 5.8 mph - N/A   Overcast
9:55 AM 50.9 °F - 47.3 °F 87% 29.82 in 10.0 mi ESE 9.2 mph - N/A   Overcast
9:56 AM 50.9 °F - 47.3 °F 87% 29.82 in 10.0 mi ESE 9.2 mph - N/A   Overcast
10:15 AM 51.1 °F - 47.3 °F 87% 29.81 in 10.0 mi ESE 11.5 mph 20.7 mph N/A   Overcast
10:16 AM 51.1 °F - 47.3 °F 87% 29.82 in 10.0 mi ESE 13.8 mph 20.7 mph N/A   Overcast
10:38 AM 52.0 °F - 47.3 °F 84% 29.79 in 10.0 mi East 12.7 mph 23.0 mph N/A   Overcast
10:56 AM 52.7 °F - 47.3 °F 82% 29.78 in 10.0 mi ESE 11.5 mph 21.9 mph N/A   Mostly Cloudy
11:15 AM 52.7 °F - 47.5 °F 82% 29.76 in 10.0 mi ESE 9.2 mph 17.3 mph N/A   Overcast
11:16 AM 52.7 °F - 47.5 °F 82% 29.76 in 10.0 mi ESE 10.4 mph 16.1 mph N/A   Overcast
11:35 AM 53.2 °F - 47.8 °F 82% 29.74 in 10.0 mi East 10.4 mph - N/A   Overcast
11:40 AM 53.2 °F - 48.0 °F 82% 29.74 in 10.0 mi ESE 10.4 mph - N/A   Overcast
11:57 AM 53.8 °F - 48.4 °F 82% 29.74 in 10.0 mi ESE 10.4 mph - N/A   Overcast
12:15 PM 54.7 °F - 48.9 °F 81% 29.73 in 10.0 mi ESE 10.4 mph - N/A   Overcast
12:16 PM 54.7 °F - 48.9 °F 81% 29.73 in 10.0 mi ESE 10.4 mph - N/A   Overcast
12:35 PM 55.4 °F - 49.3 °F 80% 29.71 in 10.0 mi ESE 9.2 mph 16.1 mph N/A   Overcast
12:59 PM 56.7 °F - 50.9 °F 81% 29.67 in 10.0 mi SE 16.1 mph 26.5 mph N/A   Overcast
1:16 PM 57.2 °F - 52.7 °F 85% 29.66 in 5.0 mi SE 15.0 mph 33.4 mph 0.01 in Rain Light Rain
1:35 PM 56.3 °F - 53.1 °F 89% 29.65 in 5.0 mi ESE 18.4 mph 27.6 mph 0.02 in Rain Light Rain
1:59 PM 56.1 °F - 53.6 °F 91% 29.63 in 7.0 mi SE 16.1 mph 23.0 mph 0.04 in Rain Light Rain
2:17 PM 56.3 °F - 54.5 °F 94% 29.58 in 5.0 mi ESE 19.6 mph 27.6 mph 0.02 in Rain Light Rain
2:35 PM 56.8 °F - 54.9 °F 93% 29.54 in 5.0 mi ESE 18.4 mph 36.8 mph 0.03 in Rain Light Rain
2:55 PM 57.7 °F - 55.4 °F 92% 29.55 in 10.0 mi SSE 16.1 mph 27.6 mph 0.03 in   Overcast
2:56 PM 57.7 °F - 55.4 °F 92% 29.55 in 10.0 mi SSE 17.3 mph 27.6 mph 0.03 in   Overcast
3:19 PM 58.5 °F - 55.0 °F 88% 29.54 in 10.0 mi SE 21.9 mph 31.1 mph N/A   Overcast
3:36 PM 59.0 °F - 54.9 °F 86% 29.54 in 10.0 mi SSE 20.7 mph 31.1 mph N/A   Overcast
3:55 PM 59.0 °F - 54.9 °F 86% 29.55 in 7.0 mi SSE 12.7 mph 26.5 mph N/A Rain Rain
3:56 PM 59.0 °F - 54.9 °F 86% 29.55 in 7.0 mi SSE 13.8 mph 26.5 mph N/A Rain Rain
4:15 PM 58.1 °F - 55.6 °F 91% 29.54 in 3.0 mi SSE 17.3 mph 25.3 mph 0.04 in Rain Rain
4:20 PM 57.9 °F - 55.4 °F 91% 29.54 in 3.0 mi SSE 13.8 mph 24.2 mph 0.04 in Rain Light Rain
4:38 PM 58.1 °F - 55.8 °F 92% 29.54 in 7.0 mi SSE 13.8 mph 24.2 mph 0.04 in Rain Light Rain
4:55 PM 58.1 °F - 55.8 °F 92% 29.52 in 7.0 mi SSE 15.0 mph 25.3 mph 0.04 in Rain Light Rain
4:56 PM 57.9 °F - 55.8 °F 92% 29.52 in 7.0 mi SSE 16.1 mph 25.3 mph 0.04 in Rain Light Rain
5:15 PM 58.1 °F - 55.9 °F 93% 29.52 in 5.0 mi SSE 17.3 mph 25.3 mph N/A Rain Light Rain
5:16 PM 58.1 °F - 55.9 °F 93% 29.52 in 7.0 mi SSE 18.4 mph 25.3 mph N/A Rain Light Rain
5:38 PM 58.1 °F - 55.9 °F 93% 29.51 in 4.0 mi SSE 18.4 mph 25.3 mph 0.03 in Rain Light Rain
5:55 PM 58.1 °F - 56.3 °F 94% 29.51 in 7.0 mi SSE 15.0 mph 25.3 mph 0.03 in Rain Light Rain
5:56 PM 58.1 °F - 56.3 °F 94% 29.51 in 10.0 mi SSE 17.3 mph 27.6 mph 0.03 in Rain Light Rain
6:15 PM 59.0 °F - 56.5 °F 91% 29.51 in 10.0 mi SSE 13.8 mph 21.9 mph N/A   Overcast
6:16 PM 59.0 °F - 56.5 °F 91% 29.51 in 10.0 mi SSE 15.0 mph 21.9 mph N/A   Overcast
6:39 PM 59.0 °F - 56.5 °F 91% 29.51 in 10.0 mi SSE 8.1 mph 18.4 mph N/A   Overcast
6:56 PM 59.2 °F - 56.8 °F 92% 29.50 in 10.0 mi SSE 15.0 mph 20.7 mph N/A   Overcast
7:15 PM 59.0 °F - 56.8 °F 93% 29.51 in 10.0 mi South 8.1 mph - 0.03 in Rain Light Rain
7:16 PM 59.0 °F - 57.0 °F 93% 29.51 in 10.0 mi SSE 9.2 mph - 0.03 in Rain Light Rain
7:39 PM 59.2 °F - 57.2 °F 93% 29.50 in 10.0 mi South 5.8 mph - 0.03 in Rain Light Rain
7:56 PM 59.0 °F - 57.2 °F 94% 29.50 in 10.0 mi SSE 9.2 mph - 0.03 in   Overcast
8:15 PM 59.0 °F - 57.2 °F 94% 29.51 in 10.0 mi SSE 9.2 mph - N/A   Overcast
8:16 PM 59.0 °F - 57.2 °F 94% 29.51 in 10.0 mi SSE 6.9 mph - N/A   Overcast
8:35 PM 59.2 °F - 57.2 °F 93% 29.51 in 10.0 mi South 5.8 mph - N/A   Overcast
8:40 PM 59.0 °F - 57.2 °F 94% 29.51 in 10.0 mi SSE 4.6 mph - N/A   Overcast
8:57 PM 59.2 °F - 57.2 °F 93% 29.49 in 10.0 mi SSE 9.2 mph 16.1 mph N/A   Overcast
9:15 PM 58.8 °F - 56.8 °F 93% 29.50 in 10.0 mi South 3.5 mph - N/A   Overcast
9:16 PM 58.6 °F - 56.8 °F 94% 29.50 in 10.0 mi SSE 3.5 mph - N/A   Overcast
9:35 PM 58.3 °F - 56.7 °F 94% 29.49 in 10.0 mi SSE 5.8 mph - N/A   Overcast
9:58 PM 58.6 °F - 56.5 °F 93% 29.51 in 10.0 mi SW 13.8 mph 19.6 mph 0.01 in Rain Rain
10:15 PM 58.6 °F - 54.5 °F 86% 29.51 in 10.0 mi SW 11.5 mph 18.4 mph N/A   Overcast
10:35 PM 57.6 °F - 52.5 °F 83% 29.52 in 10.0 mi SSW 8.1 mph 19.6 mph N/A   Mostly Cloudy
10:36 PM 57.6 °F - 52.5 °F 83% 29.52 in 10.0 mi SSW 9.2 mph 19.6 mph N/A   Mostly Cloudy
10:59 PM 56.3 °F - 50.4 °F 80% 29.53 in 10.0 mi SSW 9.2 mph - N/A   Mostly Cloudy
11:16 PM 55.8 °F - 48.6 °F 77% 29.53 in 10.0 mi SSW 8.1 mph - N/A   Scattered Clouds
11:35 PM 54.5 °F - 47.7 °F 78% 29.54 in 10.0 mi SSW 9.2 mph - N/A   Clear
11:36 PM 54.5 °F - 47.7 °F 78% 29.54 in 10.0 mi SSW 9.2 mph - N/A   Clear
11:55 PM 54.0 °F - 46.8 °F 77% 29.55 in 10.0 mi SSW 8.1 mph - N/A   Clear
11:59 PM 53.8 °F - 46.6 °F 77% 29.55 in 10.0 mi SSW 5.8 mph - N/A   Clear